FW5225 Weather Reports


time (UTC)temp
F
wind
direction
speed
knots
gust
knots
rain 1hr
in
rain 24hr
in
rain mn
in
humidity
%
barometer
mb
20220927020547 91 82 0.0 0.0 0.00 0.00 0.00 34 1006.9
20220927020101 91 82 0.0 0.0 0.00 0.00 0.00 34 1006.8
20220927015545 91 82 0.0 0.0 0.00 0.00 0.00 34 1006.8
20220927015045 92 82 0.0 0.0 0.00 0.00 0.00 34 1006.7
20220927014554 92 82 0.0 0.0 0.00 0.00 0.00 34 1006.7
20220927014046 93 82 0.0 0.0 0.00 0.00 0.00 33 1006.6
20220927013545 93 82 0.0 0.9 0.00 0.00 0.00 34 1006.7
20220927013045 94 82 0.0 0.9 0.00 0.00 0.00 31 1006.6
20220927012548 94 82 0.0 1.7 0.00 0.00 0.00 31 1006.6
20220927012047 95 82 0.9 1.7 0.00 0.00 0.00 30 1006.6
20220927011606 96 82 0.0 1.7 0.00 0.00 0.00 31 1006.6
20220927011043 97 82 0.0 2.6 0.00 0.00 0.00 29 1006.6
20220927010549 98 82 0.9 2.6 0.00 0.00 0.00 28 1006.7
20220927010043 99 82 0.9 3.5 0.00 0.00 0.00 27 1006.7
20220927005543 99 82 0.9 3.5 0.00 0.00 0.00 23 1006.7
20220927005043 100 86 0.9 1.7 0.00 0.00 0.00 23 1006.7
20220927004543 100 86 0.0 4.3 0.00 0.00 0.00 23 1006.7
20220927004047 100 96 0.9 2.6 0.00 0.00 0.00 22 1006.7
20220927003552 100 95 0.0 2.6 0.00 0.00 0.00 23 1006.7
20220927003137 100 95 0.9 4.3 0.00 0.00 0.00 23 1006.7
20220927002542 100 95 1.7 5.2 0.00 0.00 0.00 22 1006.7
20220927002043 100 93 2.6 7.0 0.00 0.00 0.00 22 1006.7
20220927001543 101 88 1.7 7.0 0.00 0.00 0.00 22 1006.7
20220927001042 101 84 3.5 6.1 0.00 0.00 0.00 22 1006.7
20220927000543 101 91 1.7 6.1 0.00 0.00 0.00 23 1006.6
20220927000051 101 94 2.6 6.1 0.00 0.00 0.00 21 1006.7
20220926235541 101 128 2.6 7.0 0.00 0.00 0.00 21 1006.7
20220926235044 101 99 1.7 7.0 0.00 0.00 0.00 21 1006.7
20220926234553 102 105 2.6 7.8 0.00 0.00 0.00 21 1006.7
20220926234039 102 68 3.5 7.8 0.00 0.00 0.00 22 1006.8
20220926233540 102 70 3.5 7.8 0.00 0.00 0.00 21 1006.8
20220926233042 102 66 2.6 5.2 0.00 0.00 0.00 22 1006.7
20220926232543 102 84 0.9 5.2 0.00 0.00 0.00 21 1006.8
20220926232038 102 82 2.6 7.8 0.00 0.00 0.00 22 1006.8
20220926231541 102 92 3.5 7.8 0.00 0.00 0.00 22 1006.8
20220926231041 103 105 4.3 8.7 0.00 0.00 0.00 20 1006.8
20220926230537 103 52 4.3 8.7 0.00 0.00 0.00 22 1006.9
20220926230052 103 63 2.6 7.0 0.00 0.00 0.00 22 1006.8
20220926225537 103 67 2.6 8.7 0.00 0.00 0.00 21 1006.9
20220926225036 103 63 3.5 8.7 0.00 0.00 0.00 22 1007.0
20220926224536 102 59 2.6 7.0 0.00 0.00 0.00 22 1007.0
20220926224039 102 107 2.6 7.0 0.00 0.00 0.00 21 1007.0
20220926223535 101 85 3.5 9.6 0.00 0.00 0.00 22 1007.0
20220926223035 102 355 2.6 9.6 0.00 0.00 0.00 24 1007.0
20220926222535 102 49 4.3 8.7 0.00 0.00 0.00 24 1007.1
20220926222037 103 360 2.6 5.2 0.00 0.00 0.00 24 1007.1
20220926221549 103 41 0.9 4.3 0.00 0.00 0.00 22 1007.2
20220926221032 103 65 1.7 7.0 0.00 0.00 0.00 21 1007.2
20220926220531 103 66 2.6 7.8 0.00 0.00 0.00 22 1007.3
20220926220031 103 74 3.5 8.7 0.00 0.00 0.00 21 1007.4
20220926215530 103 72 4.3 8.7 0.00 0.00 0.00 22 1007.5
20220926215029 102 44 2.6 6.1 0.00 0.00 0.00 22 1007.5
20220926214535 102 66 0.0 3.5 0.00 0.00 0.00 24 1007.6
20220926214028 103 66 0.0 4.3 0.00 0.00 0.00 23 1007.7
20220926213527 102 46 0.9 7.0 0.00 0.00 0.00 21 1007.7
20220926213054 102 107 3.5 7.0 0.00 0.00 0.00 20 1007.8
20220926212528 103 56 2.6 7.0 0.00 0.00 0.00 20 1007.9
20220926212025 103 61 5.2 8.7 0.00 0.00 0.00 20 1008.0
20220926211524 103 54 4.3 8.7 0.00 0.00 0.00 22 1008.1
20220926211023 102 44 4.3 7.0 0.00 0.00 0.00 21 1008.1
20220926210523 102 115 3.5 7.8 0.00 0.00 0.00 21 1008.2
20220926210100 102 97 1.7 6.1 0.00 0.00 0.00 21 1008.3
20220926205523 102 103 0.9 6.1 0.00 0.00 0.00 21 1008.3
20220926205020 102 98 0.9 6.1 0.00 0.00 0.00 21 1008.4
20220926204518 102 126 1.7 7.8 0.00 0.00 0.00 21 1008.5
20220926204020 101 69 4.3 7.8 0.00 0.00 0.00 21 1008.7
20220926203517 101 147 0.9 7.8 0.00 0.00 0.00 21 1008.7
20220926203016 101 169 3.5 7.8 0.00 0.00 0.00 21 1008.9
20220926202515 101 103 2.6 7.8 0.00 0.00 0.00 21 1009.0
20220926202014 101 68 3.5 7.8 0.00 0.00 0.00 21 1009.1
20220926201514 100 110 2.6 6.1 0.00 0.00 0.00 21 1009.2
20220926201014 100 102 3.5 7.0 0.00 0.00 0.00 21 1009.3
20220926200513 100 95 3.5 7.8 0.00 0.00 0.00 21 1009.4
20220926200018 100 85 3.5 7.8 0.00 0.00 0.00 21 1009.4
20220926195515 100 105 3.5 7.8 0.00 0.00 0.00 21 1009.5
20220926195012 100 119 2.6 8.7 0.00 0.00 0.00 21 1009.6
20220926194511 100 85 3.5 9.6 0.00 0.00 0.00 21 1009.7
20220926194009 100 86 5.2 9.6 0.00 0.00 0.00 21 1009.7
20220926193510 99 117 3.5 7.8 0.00 0.00 0.00 22 1009.8
20220926193015 99 108 1.7 7.8 0.00 0.00 0.00 22 1009.8
20220926192511 99 154 3.5 7.8 0.00 0.00 0.00 22 1009.9
20220926192007 99 125 2.6 8.7 0.00 0.00 0.00 22 1010.0
20220926191507 99 80 4.3 8.7 0.00 0.00 0.00 22 1010.1
20220926191005 99 119 4.3 8.7 0.00 0.00 0.00 21 1010.1
20220926190504 98 61 2.6 6.1 0.00 0.00 0.00 24 1010.2
20220926190007 98 43 2.6 7.0 0.00 0.00 0.00 22 1010.2
20220926185503 98 44 3.5 8.7 0.00 0.00 0.00 23 1010.3
20220926185004 98 49 4.3 8.7 0.00 0.00 0.00 22 1010.4
20220926184501 98 67 2.6 8.7 0.00 0.00 0.00 22 1010.4
20220926184100 97 46 1.7 8.7 0.00 0.00 0.00 23 1010.4
20220926183559 97 78 3.5 6.1 0.00 0.00 0.00 22 1010.5
20220926183102 97 51 0.9 5.2 0.00 0.00 0.00 25 1010.5
20220926182559 97 79 1.7 7.8 0.00 0.00 0.00 22 1010.6
20220926182056 96 60 3.5 8.7 0.00 0.00 0.00 24 1010.7
20220926181628 96 72 4.3 8.7 0.00 0.00 0.00 25 1010.7
20220926181054 96 50 4.3 8.7 0.00 0.00 0.00 25 1010.9
20220926180556 96 18 3.5 7.8 0.00 0.00 0.00 27 1010.9
20220926180104 96 40 2.6 7.0 0.00 0.00 0.00 24 1010.9
20220926175551 95 57 3.5 6.1 0.00 0.00 0.00 24 1011.0
20220926175050 95 42 2.6 7.0 0.00 0.00 0.00 24 1011.0
20220926174604 95 17 1.7 7.0 0.00 0.00 0.00 26 1011.1
20220926174057 94 70 2.6 8.7 0.00 0.00 0.00 23 1011.1
20220926173548 94 60 4.3 8.7 0.00 0.00 0.00 25 1011.2
20220926173056 94 62 1.7 7.0 0.00 0.00 0.00 24 1011.2
20220926172546 94 82 2.6 7.0 0.00 0.00 0.00 25 1011.3
20220926172044 94 39 3.5 6.1 0.00 0.00 0.00 26 1011.3
20220926171543 93 42 3.5 7.0 0.00 0.00 0.00 24 1011.4
20220926171041 92 39 2.6 7.0 0.00 0.00 0.00 25 1011.4
20220926170541 92 45 2.6 7.0 0.00 0.00 0.00 26 1011.4
20220926170052 92 30 4.3 7.0 0.00 0.00 0.00 24 1011.4
20220926165542 92 59 4.3 7.8 0.00 0.00 0.00 24 1011.4
20220926165038 92 34 5.2 7.8 0.00 0.00 0.00 25 1011.4
20220926164538 91 53 4.3 7.8 0.00 0.00 0.00 24 1011.5
20220926164037 91 38 5.2 9.6 0.00 0.00 0.00 23 1011.5
20220926163535 91 46 4.3 9.6 0.00 0.00 0.00 25 1011.5
20220926163058 91 40 4.3 7.8 0.00 0.00 0.00 24 1011.5
20220926162534 91 32 2.6 7.0 0.00 0.00 0.00 27 1011.5
20220926162032 90 59 4.3 7.8 0.00 0.00 0.00 23 1011.5
20220926161535 90 40 5.2 9.6 0.00 0.00 0.00 24 1011.5
20220926161030 90 39 5.2 9.6 0.00 0.00 0.00 25 1011.4
20220926160540 90 38 4.3 8.7 0.00 0.00 0.00 24 1011.4
20220926160100 89 40 4.3 7.8 0.00 0.00 0.00 24 1011.4
20220926155527 89 46 2.6 10.4 0.00 0.00 0.00 26 1011.4
20220926155026 89 41 4.3 10.4 0.00 0.00 0.00 26 1011.3
20220926154525 88 61 3.5 10.4 0.00 0.00 0.00 24 1011.2
20220926154023 88 40 7.0 10.4 0.00 0.00 0.00 24 1011.2
20220926153521 87 53 3.5 10.4 0.00 0.00 0.00 26 1011.2
20220926153119 87 39 3.5 8.7 0.00 0.00 0.00 27 1011.1
20220926152520 87 40 4.3 10.4 0.00 0.00 0.00 26 1011.1
20220926152028 87 21 5.2 10.4 0.00 0.00 0.00 25 1011.0
20220926151518 87 45 6.1 10.4 0.00 0.00 0.00 24 1011.0
20220926151018 87 42 6.1 10.4 0.00 0.00 0.00 24 1010.9
20220926150516 86 19 5.2 10.4 0.00 0.00 0.00 26 1010.9
20220926150019 86 25 3.5 8.7 0.00 0.00 0.00 27 1010.8
20220926145513 86 49 4.3 10.4 0.00 0.00 0.00 25 1010.8
20220926145016 86 31 5.2 10.4 0.00 0.00 0.00 27 1010.8
20220926144529 85 35 4.3 7.0 0.00 0.00 0.00 25 1010.8
20220926144009 85 33 4.3 8.7 0.00 0.00 0.00 26 1010.7
20220926143516 85 35 3.5 7.0 0.00 0.00 0.00 27 1010.7
20220926143007 84 360 2.6 9.6 0.00 0.00 0.00 25 1010.7
20220926142507 84 34 4.3 9.6 0.00 0.00 0.00 27 1010.6
20220926142004 84 22 3.5 7.8 0.00 0.00 0.00 26 1010.6
20220926141503 83 9 4.3 7.8 0.00 0.00 0.00 27 1010.5
20220926141002 83 32 4.3 7.0 0.00 0.00 0.00 27 1010.5
20220926140610 83 17 3.5 6.1 0.00 0.00 0.00 26 1010.5
20220926140112 83 40 4.3 6.1 0.00 0.00 0.00 25 1010.4
20220926135601 82 34 3.5 7.8 0.00 0.00 0.00 27 1010.4
20220926135057 82 40 3.5 6.1 0.00 0.00 0.00 26 1010.3
20220926134557 82 37 3.5 5.2 0.00 0.00 0.00 26 1010.3
20220926134056 82 31 3.5 6.1 0.00 0.00 0.00 26 1010.3
20220926133556 82 5 2.6 6.1 0.00 0.00 0.00 27 1010.3
20220926133054 82 15 2.6 7.0 0.00 0.00 0.00 26 1010.2
20220926132553 82 37 5.2 7.8 0.00 0.00 0.00 26 1010.1
20220926132052 82 46 5.2 7.8 0.00 0.00 0.00 24 1010.1
20220926131556 82 25 4.3 7.8 0.00 0.00 0.00 25 1010.1
20220926131051 82 49 4.3 7.8 0.00 0.00 0.00 24 1010.1
20220926130551 82 52 5.2 7.8 0.00 0.00 0.00 25 1010.0
20220926130051 82 49 4.3 7.8 0.00 0.00 0.00 25 1010.0
20220926125559 82 46 4.3 7.8 0.00 0.00 0.00 24 1010.0
20220926125050 82 29 4.3 7.8 0.00 0.00 0.00 25 1009.9
20220926124550 82 41 3.5 7.0 0.00 0.00 0.00 26 1009.8
20220926124054 82 40 2.6 7.0 0.00 0.00 0.00 25 1009.7
20220926123550 81 29 4.3 7.0 0.00 0.00 0.00 25 1009.7
20220926123049 81 34 3.5 6.1 0.00 0.00 0.00 26 1009.6
20220926122552 80 51 2.6 4.3 0.00 0.00 0.00 26 1009.6
20220926122046 81 45 1.7 4.3 0.00 0.00 0.00 26 1009.5
20220926121546 81 42 2.6 5.2 0.00 0.00 0.00 26 1009.4
20220926121045 81 36 2.6 5.2 0.00 0.00 0.00 26 1009.4
20220926120546 81 28 0.9 4.3 0.00 0.00 0.00 27 1009.4
20220926120104 81 35 1.7 4.3 0.00 0.00 0.00 28 1009.4
20220926115545 80 34 2.6 4.3 0.00 0.00 0.00 26 1009.3
20220926115044 80 40 2.6 5.2 0.00 0.00 0.00 27 1009.3
20220926114547 80 37 2.6 5.2 0.00 0.00 0.00 28 1009.2
20220926114044 80 38 2.6 4.3 0.00 0.00 0.00 28 1009.3
20220926113544 81 49 2.6 4.3 0.00 0.00 0.00 27 1009.3
20220926113044 80 38 2.6 4.3 0.00 0.00 0.00 28 1009.2
20220926112550 80 53 2.6 5.2 0.00 0.00 0.00 27 1009.2
20220926112049 81 40 1.7 5.2 0.00 0.00 0.00 28 1009.3
20220926111543 81 49 2.6 6.1 0.00 0.00 0.00 26 1009.2
20220926111043 80 45 3.5 6.1 0.00 0.00 0.00 26 1009.3
20220926110543 80 63 2.6 5.2 0.00 0.00 0.00 27 1009.3
20220926110042 80 59 3.5 6.1 0.00 0.00 0.00 27 1009.2
20220926105542 78 55 3.5 6.1 0.00 0.00 0.00 29 1009.3
20220926105042 77 23 3.5 6.1 0.00 0.00 0.00 31 1009.3
20220926104542 77 14 1.7 4.3 0.00 0.00 0.00 34 1009.3
20220926104042 77 40 2.6 4.3 0.00 0.00 0.00 33 1009.3
20220926103541 78 53 0.9 2.6 0.00 0.00 0.00 35 1009.4
20220926103040 79 55 1.7 4.3 0.00 0.00 0.00 32 1009.3
20220926102543 79 57 1.7 4.3 0.00 0.00 0.00 31 1009.3
20220926102038 81 55 1.7 4.3 0.00 0.00 0.00 29 1009.2
20220926101540 82 53 2.6 4.3 0.00 0.00 0.00 27 1009.3
20220926101038 82 63 2.6 6.1 0.00 0.00 0.00 26 1009.2
20220926100536 82 57 3.5 6.1 0.00 0.00 0.00 25 1009.1
20220926100043 82 36 2.6 4.3 0.00 0.00 0.00 26 1009.1
20220926095538 83 60 2.6 3.5 0.00 0.00 0.00 26 1009.1
20220926095036 83 69 1.7 3.5 0.00 0.00 0.00 24 1009.1
20220926094543 84 67 2.6 3.5 0.00 0.00 0.00 24 1009.1
20220926094035 84 57 1.7 5.2 0.00 0.00 0.00 23 1009.0
20220926093535 84 51 2.6 5.2 0.00 0.00 0.00 23 1009.0
20220926093036 84 5 1.7 6.1 0.00 0.00 0.00 25 1009.0
20220926092533 83 49 3.5 6.1 0.00 0.00 0.00 24 1008.9
20220926092035 83 22 1.7 5.2 0.00 0.00 0.00 27 1008.9
20220926091532 83 39 2.6 6.1 0.00 0.00 0.00 25 1009.0
20220926091032 82 36 3.5 6.1 0.00 0.00 0.00 27 1009.1
20220926090531 82 49 3.5 6.1 0.00 0.00 0.00 27 1009.1
20220926090031 81 42 4.3 5.2 0.00 0.00 0.00 29 1009.1
20220926085534 80 43 2.6 4.3 0.00 0.00 0.00 30 1009.1
20220926085030 79 49 2.6 4.3 0.00 0.00 0.00 31 1009.1
20220926084529 80 42 0.0 1.7 0.00 0.00 0.00 37 1009.1
20220926084036 80 42 0.0 0.0 0.00 0.00 0.00 33 1009.1
20220926083529 81 42 0.0 0.0 0.00 0.00 0.00 31 1009.0
20220926083037 81 42 0.0 1.7 0.00 0.00 0.00 31 1009.1
20220926082528 81 42 0.0 1.7 0.00 0.00 0.00 30 1009.1
20220926082032 81 41 0.0 1.7 0.00 0.00 0.00 30 1009.1
20220926081534 81 41 0.0 3.5 0.00 0.00 0.00 33 1009.1
20220926081033 81 42 0.9 3.5 0.00 0.00 0.00 30 1009.1
20220926080527 81 40 1.7 3.5 0.00 0.00 0.00 30 1009.0
20220926080027 80 36 0.9 3.5 0.00 0.00 0.00 31 1009.1
20220926075527 79 35 1.7 3.5 0.00 0.00 0.00 32 1009.1
20220926075025 78 22 0.0 2.6 0.00 0.00 0.00 37 1009.1
20220926074524 78 13 0.0 0.0 0.00 0.00 0.00 42 1009.1
20220926074023 79 13 0.0 0.0 0.00 0.00 0.00 39 1009.1
20220926073522 79 13 0.0 0.0 0.00 0.00 0.00 39 1009.1
20220926073021 80 13 0.0 0.0 0.00 0.00 0.00 40 1009.1
20220926072527 80 13 0.0 0.0 0.00 0.00 0.00 34 1009.1
20220926072018 80 13 0.0 0.0 0.00 0.00 0.00 35 1009.2
20220926071531 81 13 0.0 0.0 0.00 0.00 0.00 33 1009.1
20220926071017 81 13 0.0 0.0 0.00 0.00 0.00 34 1009.1
20220926070515 81 13 0.0 0.0 0.00 0.00 0.00 34 1009.1
20220926070040 83 13 0.0 0.0 0.00 0.00 0.00 34 1009.2
20220926065513 84 13 0.0 0.0 0.00 0.00 0.00 28 1009.2
20220926065013 84 13 0.0 0.0 0.00 0.00 0.00 27 1009.1
20220926064512 85 13 0.0 2.6 0.00 0.00 0.00 27 1009.2
20220926064026 85 13 0.0 2.6 0.00 0.00 0.00 28 1009.2
20220926063515 85 13 0.0 3.5 0.00 0.00 0.00 28 1009.2
20220926063012 85 14 0.9 5.2 0.00 0.00 0.00 27 1009.2
20220926062512 85 25 2.6 5.2 0.00 0.00 0.00 27 1009.2
20220926062012 85 28 2.6 6.1 0.00 0.00 0.00 27 1009.3
20220926061519 84 32 3.5 7.0 0.00 0.00 0.00 28 1009.3
20220926061011 83 28 4.3 7.8 0.00 0.00 0.00 29 1009.2
20220926060513 82 48 5.2 8.7 0.00 0.00 0.00 31 1009.3
20220926060011 82 45 3.5 6.1 0.00 0.00 0.00 34 1009.2
20220926055511 83 61 2.6 5.2 0.00 0.00 0.00 33 1009.3
20220926055010 84 63 1.7 4.3 0.00 0.00 0.00 32 1009.2
20220926054511 86 68 2.6 6.1 0.00 0.00 0.00 30 1009.2
20220926054011 87 72 1.7 6.1 0.00 0.00 0.00 27 1009.1
20220926053510 88 78 0.9 2.6 0.00 0.00 0.00 24 1009.0
20220926053012 88 328 0.0 2.6 0.00 0.00 0.00 25 1008.9
20220926052510 88 328 0.0 2.6 0.00 0.00 0.00 25 1008.8
20220926052010 89 328 0.9 3.5 0.00 0.00 0.00 24 1008.8
20220926051516 89 328 1.7 3.5 0.00 0.00 0.00 23 1008.8
20220926051009 89 330 0.9 2.6 0.00 0.00 0.00 24 1008.8
20220926050517 90 330 0.9 2.6 0.00 0.00 0.00 23 1008.8
20220926050009 90 329 0.9 2.6 0.00 0.00 0.00 23 1008.8
20220926045511 90 330 0.9 2.6 0.00 0.00 0.00 23 1008.7
20220926045010 90 331 1.7 3.5 0.00 0.00 0.00 23 1008.8
20220926044509 90 329 1.7 3.5 0.00 0.00 0.00 22 1008.8
20220926044010 90 330 1.7 3.5 0.00 0.00 0.00 23 1008.8
20220926043509 90 329 2.6 4.3 0.00 0.00 0.00 23 1008.8
20220926043009 89 330 2.6 4.3 0.00 0.00 0.00 23 1008.7
20220926042509 89 329 1.7 3.5 0.00 0.00 0.00 24 1008.7
20220926042008 89 313 1.7 3.5 0.00 0.00 0.00 24 1008.7
20220926041508 89 313 1.7 3.5 0.00 0.00 0.00 24 1008.7
20220926041007 89 313 1.7 3.5 0.00 0.00 0.00 24 1008.7
20220926040508 89 312 1.7 2.6 0.00 0.00 0.00 25 1008.8
20220926040008 89 311 0.9 3.5 0.00 0.00 0.00 25 1008.8
20220926035509 88 311 1.7 3.5 0.00 0.00 0.00 26 1008.8
20220926035011 88 311 1.7 3.5 0.00 0.00 0.00 26 1008.8
20220926034508 88 310 0.9 2.6 0.00 0.00 0.00 26 1008.8
20220926034009 89 309 0.0 2.6 0.00 0.00 0.00 26 1008.7
20220926033509 89 309 0.9 2.6 0.00 0.00 0.00 26 1008.7
20220926033007 90 309 0.9 3.5 0.00 0.00 0.00 25 1008.7
20220926032507 90 309 1.7 3.5 0.00 0.00 0.00 24 1008.7
20220926032008 90 312 1.7 3.5 0.00 0.00 0.00 24 1008.7
20220926031512 89 288 1.7 3.5 0.00 0.00 0.00 25 1008.6
20220926031007 88 268 1.7 3.5 0.00 0.00 0.00 26 1008.6
20220926030513 88 238 0.0 1.7 0.00 0.00 0.00 30 1008.6
20220926030013 88 238 0.0 0.9 0.00 0.00 0.00 29 1008.5
20220926025506 89 238 0.0 1.7 0.00 0.00 0.00 26 1008.5
20220926025006 89 238 0.0 1.7 0.00 0.00 0.00 27 1008.5
20220926024505 90 232 0.0 1.7 0.00 0.00 0.00 27 1008.5
20220926024005 89 229 0.0 0.9 0.00 0.00 0.00 25 1008.5
20220926023505 89 229 0.0 0.9 0.00 0.00 0.00 25 1008.4
20220926023015 89 229 0.0 1.7 0.00 0.00 0.00 26 1008.4
20220926022505 89 229 0.0 1.7 0.00 0.00 0.00 27 1008.4
20220926022008 89 229 0.0 1.7 0.00 0.00 0.00 26 1008.4
20220926021510 90 229 0.0 2.6 0.00 0.00 0.00 27 1008.3
20220926021005 90 229 0.0 3.5 0.00 0.00 0.00 26 1008.4